Date,TemperatureHighF,TemperatureAvgF,TemperatureLowF,DewpointHighF,DewpointAvgF,DewpointLowF,HumidityHigh,HumidityAvg,HumidityLow,PressureMaxIn,PressureMinIn,WindSpeedMaxMPH,WindSpeedAvgMPH,GustSpeedMaxMPH,PrecipitationSumIn
2013-1-1,33,31,25,31,28,20,94,89,79,30.22,30.09,3,0,7,0.13
2013-1-2,29,20,12,20,13,4,88,74,36,30.33,30.22,2,0,5,0.01
2013-1-3,36,20,5,25,14,1,86,78,64,30.41,30.28,6,1,11,0.01
2013-1-4,35,30,24,24,21,18,85,72,56,30.44,30.37,8,2,17,0.01
2013-1-5,41,29,13,29,21,10,90,75,50,30.41,30.19,8,1,13,0.00
2013-1-6,38,34,25,32,26,20,83,75,67,30.43,30.09,9,4,19,0.00
2013-1-7,39,26,13,26,20,10,89,79,59,30.52,30.28,6,1,9,0.00
2013-1-8,50,31,18,32,24,15,90,76,46,30.34,30.24,5,1,13,0.00
2013-1-9,54,43,30,44,37,27,94,82,59,30.53,30.23,6,1,10,0.13
2013-1-10,48,38,30,46,36,28,95,90,72,30.53,30.03,8,3,11,0.26
2013-1-11,62,56,48,56,50,46,95,81,64,30.03,29.86,12,5,24,0.60
2013-1-12,66,61,57,62,56,48,94,84,71,29.99,29.68,9,3,18,0.87
2013-1-13,67,41,26,62,39,22,95,92,81,30.27,29.62,14,3,27,1.80
2013-1-14,28,24,21,22,18,16,84,79,67,30.50,30.27,0,0,0,0.00
2013-1-15,32,27,20,24,20,17,87,77,65,30.42,30.14,0,0,0,0.00
2013-1-16,35,32,31,26,24,19,81,72,53,30.15,30.05,6,1,10,0.00
2013-1-17,45,34,26,33,25,19,89,71,50,30.47,30.14,11,2,17,0.00
2013-1-18,44,32,17,26,20,14,89,65,38,30.58,30.24,12,3,25,0.00
2013-1-19,56,47,42,36,27,21,63,46,37,30.24,29.95,16,10,29,0.00
2013-1-20,48,35,27,37,16,6,69,46,28,30.31,30.00,13,4,20,0.00
2013-1-21,27,21,13,16,7,-2,78,57,34,30.38,30.21,12,5,22,0.00
2013-1-22,19,13,7,1,-2,-5,65,50,38,30.50,30.37,10,2,18,0.00
2013-1-23,35,23,10,19,9,1,77,57,37,30.45,30.16,6,1,12,0.00
2013-1-24,30,23,17,18,5,-3,71,48,28,30.63,30.21,14,3,21,0.00
2013-1-25,30,25,21,22,15,1,87,68,38,30.41,30.13,7,2,11,0.00
2013-1-26,38,28,17,21,17,13,86,65,41,30.45,30.19,4,1,8,0.00
2013-1-27,43,32,21,41,25,15,93,77,56,30.46,30.11,7,2,10,0.23
2013-1-28,58,54,43,55,49,41,94,85,67,30.13,30.02,18,8,34,0.45
2013-1-29,68,62,57,59,56,52,85,80,74,30.02,29.47,12,7,25,0.01
2013-1-30,69,48,29,60,43,22,95,83,68,29.74,29.30,27,8,30,1.05
2013-1-31,32,26,13,25,17,3,90,69,54,30.23,29.74,14,7,28,0.00
2013-2-1,19,13,6,9,3,-3,79,64,52,30.54,30.24,12,3,18,0.00
2013-2-2,32,26,16,26,20,8,88,77,57,30.38,30.07,9,2,16,0.04
2013-2-3,29,22,15,23,17,11,88,79,64,30.20,30.04,9,2,18,0.00
2013-2-4,41,30,14,37,24,11,93,80,54,30.18,29.85,6,1,12,0.04
2013-2-5,45,35,24,35,29,22,92,80,61,30.08,29.90,7,2,13,0.00
2013-2-6,39,35,30,32,28,25,83,76,67,30.30,30.09,6,1,11,0.00
2013-2-7,65,46,30,49,35,26,91,69,33,30.20,29.82,11,2,19,0.32
2013-2-8,51,36,33,48,30,25,91,79,70,30.39,29.84,13,5,19,0.06
2013-2-9,44,34,22,27,23,-100,89,67,47,30.45,30.19,6,2,11,0.00
2013-2-10,54,45,35,50,38,23,90,75,58,30.18,29.75,9,4,21,0.26
2013-2-11,55,46,38,50,32,26,87,60,48,30.12,29.75,14,7,33,0.00
2013-2-12,49,38,28,32,27,23,84,66,37,30.18,29.94,6,1,12,0.00
2013-2-13,46,36,31,32,29,24,90,76,43,29.94,29.84,7,2,13,0.03
2013-2-14,54,44,36,37,33,28,87,65,47,30.06,29.87,9,3,18,0.00
2013-2-15,40,33,24,30,23,15,87,67,42,30.22,30.02,10,3,22,0.00
2013-2-16,31,25,20,17,13,7,83,63,37,30.22,30.15,11,3,18,0.00
2013-2-17,38,26,14,16,12,4,84,58,30,30.31,30.19,6,1,11,0.00
2013-2-18,60,44,25,43,29,15,88,57,33,30.19,29.66,16,6,31,0.49
2013-2-19,48,31,25,44,22,12,89,69,57,30.23,29.67,14,8,30,0.19
2013-2-20,28,22,17,15,11,8,76,60,45,30.40,30.23,11,3,20,0.00
2013-2-21,34,25,14,29,18,11,90,76,58,30.39,30.00,11,3,17,0.21
2013-2-22,40,36,32,36,32,26,94,85,74,30.05,29.86,9,2,18,0.07
2013-2-23,42,33,25,26,23,20,82,66,45,30.07,29.96,7,2,13,0.00
2013-2-24,47,32,19,26,22,16,88,69,41,30.19,30.02,3,0,8,0.00
2013-2-25,48,36,22,26,23,19,90,63,39,30.16,29.81,10,3,18,0.00
2013-2-26,46,42,38,44,36,24,94,81,49,29.80,29.39,10,3,24,0.87
2013-2-27,41,36,33,37,32,29,91,84,74,29.80,29.55,12,6,36,0.04
2013-2-28,37,35,32,33,31,28,92,87,82,30.04,29.79,6,3,16,0.05
2013-3-1,35,33,32,32,30,29,92,89,81,30.09,30.00,5,1,10,0.07
2013-3-2,32,30,29,29,23,18,88,75,59,30.17,30.08,7,0,11,0.00
2013-3-3,38,29,22,24,17,-100,86,66,40,30.19,30.10,5,-8,11,0.01
2013-3-4,42,32,18,26,20,14,88,63,40,30.18,29.94,7,2,12,0.00
2013-3-5,41,37,29,38,31,25,93,79,53,29.93,29.67,11,4,26,0.30
2013-3-6,32,31,29,29,28,27,93,89,85,30.34,29.83,8,4,17,0.02
2013-3-7,37,33,29,30,27,26,89,79,65,30.43,30.33,4,1,6,0.03
2013-3-8,48,36,26,30,26,23,91,69,43,30.51,30.37,6,1,8,0.01
2013-3-9,60,46,30,36,30,25,82,57,31,30.37,29.98,8,3,13,0.00
2013-3-10,69,61,55,48,35,31,70,39,25,29.98,29.74,13,5,25,0.00
2013-3-11,57,47,36,51,41,29,89,78,65,29.94,29.65,13,6,26,0.02
2013-3-12,47,39,34,31,26,23,76,61,41,30.12,29.95,10,5,20,0.00
2013-3-13,38,31,25,28,20,17,79,64,56,30.42,30.10,11,5,19,0.00
2013-3-14,44,30,18,31,21,14,91,73,33,30.43,30.23,7,1,12,0.02
2013-3-15,59,44,26,42,35,24,93,73,47,30.23,29.71,4,1,7,0.04
2013-3-16,65,54,40,50,42,33,77,64,56,30.03,29.61,9,5,19,0.00
2013-3-17,40,36,34,34,32,30,92,86,74,30.14,29.93,8,3,11,0.75
2013-3-18,48,40,35,45,37,33,95,89,79,29.93,29.66,17,5,19,1.15
2013-3-19,45,37,28,35,21,12,88,56,29,30.19,29.89,12,5,24,0.00
2013-3-20,34,30,26,20,16,10,76,55,41,30.19,30.09,11,4,24,0.00
2013-3-21,36,26,19,14,10,7,69,50,31,30.12,30.04,7,2,16,0.00
2013-3-22,44,31,15,22,15,10,86,55,25,30.13,30.02,6,1,11,0.00
2013-3-23,54,43,35,28,24,18,72,49,29,30.07,29.86,7,2,11,0.00
2013-3-24,44,37,32,33,30,24,93,78,47,29.85,29.43,11,3,19,0.14
2013-3-25,33,32,30,31,29,27,93,89,86,30.07,29.50,9,2,18,0.01
2013-3-26,41,35,31,30,26,21,89,72,47,30.33,30.07,9,4,20,0.03
2013-3-27,46,36,26,28,24,22,87,63,42,30.38,30.32,7,2,13,0.00
2013-3-28,53,38,22,29,24,18,88,61,32,30.42,30.31,5,1,11,0.00
2013-3-29,58,43,26,40,29,23,90,63,31,30.34,30.21,4,0,7,0.00
2013-3-30,60,46,27,41,32,24,90,63,32,30.25,29.94,8,2,13,0.00
2013-3-31,61,52,47,48,44,40,93,77,49,29.93,29.82,8,2,17,0.25
2013-4-1,53,44,31,41,25,16,71,49,28,30.19,29.84,12,4,18,0.00
2013-4-2,48,35,24,22,17,10,79,53,23,30.33,30.18,7,2,12,0.00
2013-4-3,49,37,21,23,18,12,83,50,25,30.43,30.31,9,2,14,0.00
2013-4-4,59,44,33,28,20,17,65,41,20,30.33,30.01,7,1,10,0.00
2013-4-5,63,46,28,36,27,22,84,52,21,30.14,30.02,8,2,14,0.00
2013-4-6,73,55,36,38,33,28,80,48,25,30.15,29.84,12,4,21,0.00
2013-4-7,74,65,57,56,46,37,92,53,35,29.97,29.83,14,5,27,0.85
2013-4-8,73,63,54,56,53,50,94,72,50,29.95,29.84,17,4,26,0.00
2013-4-9,80,69,54,60,56,50,88,65,43,30.00,29.88,17,6,31,0.00
2013-4-10,72,67,62,62,59,57,86,77,68,29.91,29.87,10,2,18,0.00
2013-4-11,77,62,50,61,57,48,94,86,47,29.76,29.55,13,3,18,1.09
2013-4-12,50,44,37,47,34,30,92,67,49,29.98,29.62,12,5,24,0.01
2013-4-13,59,48,37,37,34,31,80,60,37,30.05,29.98,11,3,25,0.00
2013-4-14,74,57,38,46,40,34,89,57,26,30.02,29.80,9,3,16,0.00
2013-4-15,73,64,58,56,51,46,78,63,52,29.97,29.85,7,2,13,0.00
2013-4-16,77,65,53,66,58,49,93,79,64,30.13,29.90,12,4,24,0.37
2013-4-17,79,64,56,69,60,54,95,88,69,30.14,29.87,12,3,17,0.52
2013-4-18,82,73,64,65,61,57,89,68,46,29.86,29.57,16,4,28,0.11
2013-4-19,64,43,39,60,35,29,92,73,56,30.06,29.56,11,5,22,0.88
2013-4-20,54,43,32,35,29,23,90,61,31,30.41,30.06,7,2,16,0.01
2013-4-21,59,45,32,35,29,23,85,58,27,30.52,30.34,9,2,14,0.00
2013-4-22,71,53,32,43,36,30,92,59,29,30.36,30.08,6,1,11,0.00
2013-4-23,68,60,47,57,49,41,84,67,57,30.10,29.78,9,3,22,0.06
2013-4-24,67,46,35,56,40,32,92,79,61,30.28,29.78,11,4,20,0.57
2013-4-25,59,46,30,40,33,25,93,65,29,30.39,30.27,9,3,19,0.00
2013-4-26,64,46,32,42,24,-100,93,56,31,30.45,30.32,8,-83,10,0.00
2013-4-27,60,53,44,53,47,41,92,80,64,30.35,29.98,8,3,12,0.00
2013-4-28,61,58,55,58,54,52,94,88,77,29.97,29.85,7,2,13,0.13
2013-4-29,70,60,55,55,52,50,93,77,49,30.01,29.90,6,1,11,0.00
2013-4-30,81,66,47,59,52,44,93,65,40,30.02,29.93,6,2,11,0.00
2013-5-1,83,65,50,59,53,48,94,70,34,30.12,30.02,6,1,10,0.00
2013-5-2,77,67,56,61,56,54,93,71,52,30.16,30.03,7,1,12,0.00
2013-5-3,76,66,59,61,57,52,92,73,44,30.04,29.85,0,0,0,0.17
2013-5-4,62,57,53,58,52,48,94,84,60,30.01,29.87,7,1,18,0.73
2013-5-5,54,53,52,53,51,49,95,93,87,29.99,29.89,7,2,11,0.51
2013-5-6,67,60,52,55,53,50,94,81,63,29.94,29.83,5,1,11,0.02
2013-5-7,72,63,56,57,55,53,91,75,51,29.98,29.91,3,0,7,0.00
2013-5-8,79,63,52,64,56,50,95,79,39,30.02,29.93,6,1,10,0.04
2013-5-9,80,65,52,63,56,50,95,76,37,30.02,29.89,7,1,18,0.03
2013-5-10,69,66,59,63,60,54,93,82,71,29.90,29.81,5,1,12,0.51
2013-5-11,65,55,49,56,46,33,87,74,45,30.07,29.90,8,2,16,0.03
2013-5-12,59,50,38,37,31,25,82,53,29,30.17,30.07,7,2,18,0.00
2013-5-13,66,51,34,40,34,28,94,59,26,30.23,30.13,6,1,16,0.00
2013-5-14,84,66,45,59,49,37,83,55,39,30.15,29.82,10,2,21,0.00
2013-5-15,87,80,72,61,58,56,63,48,36,29.92,29.83,10,5,21,0.00
2013-5-16,74,68,61,64,60,55,92,76,56,29.97,29.84,7,2,13,0.24
2013-5-17,76,66,56,66,61,54,95,84,60,30.03,29.97,5,0,12,0.01
2013-5-18,78,69,62,67,63,60,94,83,65,30.02,29.93,1,0,5,0.00
2013-5-19,86,73,59,70,65,58,95,77,52,29.96,29.83,4,0,10,0.00
2013-5-20,84,77,68,70,68,65,93,76,56,29.94,29.82,9,2,17,0.00
2013-5-21,81,73,63,67,64,60,94,74,50,29.94,29.78,12,2,24,0.42
2013-5-22,77,70,65,64,61,58,89,75,55,29.79,29.73,8,2,18,0.00
2013-5-23,69,62,52,61,55,46,93,80,60,30.16,29.78,8,2,17,0.32
2013-5-24,70,55,42,48,43,37,89,66,33,30.38,30.16,5,1,12,0.00
2013-5-25,68,54,40,53,45,38,95,76,38,30.40,30.22,2,0,5,0.08
2013-5-26,72,60,51,57,53,48,94,80,52,30.29,30.13,4,0,7,0.12
2013-5-27,84,70,58,65,59,55,91,70,43,30.13,29.90,11,2,19,0.07
2013-5-28,84,74,63,68,64,61,94,71,50,29.98,29.87,11,3,26,0.01
2013-5-29,86,77,64,65,61,57,88,60,40,30.05,29.95,8,2,21,0.00
2013-5-30,85,78,69,69,66,62,83,67,55,30.05,29.93,8,2,20,0.00
2013-5-31,78,73,64,70,67,62,94,81,68,30.00,29.87,9,1,20,0.71
2013-6-1,76,70,64,69,65,62,94,85,71,29.92,29.76,11,2,25,1.05
2013-6-2,74,68,64,64,60,57,92,78,60,29.96,29.84,6,2,13,0.00
2013-6-3,70,62,56,58,53,48,89,73,52,30.09,29.95,4,0,7,0.00
2013-6-4,76,63,48,62,54,46,95,75,50,30.13,30.01,1,0,3,0.00
2013-6-5,82,68,55,64,58,53,94,72,47,30.05,29.83,2,0,6,0.00
2013-6-6,81,70,64,67,63,59,94,81,47,29.84,29.74,2,0,6,0.54
2013-6-7,77,67,61,63,61,59,94,82,55,29.86,29.77,2,0,7,0.00
2013-6-8,80,70,62,66,62,58,93,77,49,29.99,29.84,2,0,6,0.07
2013-6-9,80,71,62,67,63,55,94,78,43,30.01,29.81,4,0,11,0.00
2013-6-10,76,70,66,67,64,61,93,80,62,29.88,29.77,9,2,16,0.21
2013-6-11,85,74,61,69,64,58,93,72,47,29.98,29.86,6,1,13,0.00
2013-6-12,91,81,74,74,72,68,86,75,54,29.92,29.76,10,2,17,0.00
2013-6-13,84,76,65,71,61,51,74,60,39,29.96,29.63,14,4,18,0.00
2013-6-14,83,68,54,64,58,52,93,72,42,30.06,29.94,3,0,6,0.00
2013-6-15,86,72,58,66,61,57,95,70,41,30.09,29.92,6,1,13,0.00
2013-6-16,77,73,69,70,66,61,92,80,63,30.02,29.93,4,0,10,0.06
2013-6-17,87,75,65,75,68,63,95,82,56,29.96,29.83,16,1,24,1.62
2013-6-18,85,68,63,69,62,-100,95,84,53,29.95,29.85,7,-11,10,1.19
2013-6-19,81,70,61,68,63,60,96,80,53,30.08,29.96,1,0,5,0.00
2013-6-20,85,73,60,69,63,58,95,74,42,30.16,30.08,2,0,6,0.00
2013-6-21,88,75,62,72,66,60,95,75,46,30.17,30.02,6,0,13,0.00
2013-6-22,89,77,68,72,68,66,94,77,51,30.13,30.02,6,1,13,0.00
2013-6-23,85,74,64,72,68,63,95,81,54,30.11,30.03,8,1,24,0.23
2013-6-24,78,74,70,71,69,67,92,84,75,30.12,30.02,6,1,11,0.00
2013-6-25,90,79,67,74,71,64,94,77,56,30.03,29.86,6,1,16,0.00
2013-6-26,82,71,66,74,68,64,95,90,69,29.98,29.70,10,1,18,2.38
2013-6-27,89,78,69,76,71,68,96,83,55,29.78,29.72,6,1,12,0.00
2013-6-28,86,78,70,70,64,57,86,64,39,29.73,29.60,7,2,17,0.00
2013-6-29,81,70,65,68,64,61,92,80,57,29.65,29.56,8,1,13,0.17
2013-6-30,76,68,65,68,65,63,95,89,68,29.82,29.63,6,0,13,0.44
2013-7-1,72,68,64,68,64,62,94,88,79,29.90,29.80,2,0,5,0.37
2013-7-2,77,70,66,67,65,63,93,83,65,29.99,29.89,4,0,10,0.00
2013-7-3,79,69,61,66,62,59,95,82,58,30.09,29.98,6,2,13,0.00
2013-7-4,74,69,62,70,64,-100,95,88,83,30.12,30.04,0,-16,2,0.00
2013-7-5,80,72,64,70,67,63,95,84,66,30.11,30.04,1,0,3,0.00
2013-7-6,76,71,68,69,66,64,94,87,70,30.10,30.03,2,0,7,0.09
2013-7-7,86,74,66,70,66,63,95,78,51,30.09,30.01,4,1,7,0.00
2013-7-8,88,77,66,73,69,64,95,78,56,30.12,30.02,6,1,14,0.00
2013-7-9,90,82,75,75,72,-100,84,72,58,30.06,29.94,6,2,17,0.00
2013-7-10,85,79,69,76,72,66,89,78,63,30.00,29.80,12,1,20,0.26
2013-7-11,81,75,66,70,62,58,94,66,47,30.01,29.91,5,1,16,0.00
2013-7-12,82,69,57,63,59,55,95,72,42,30.09,30.01,3,0,10,0.00
2013-7-13,82,71,59,69,62,57,95,77,50,30.08,30.02,2,0,5,0.00
2013-7-14,89,76,63,74,68,61,95,78,53,30.17,30.08,2,0,6,0.06
2013-7-15,89,79,70,73,71,68,95,79,54,30.26,30.16,5,0,12,0.00
2013-7-16,94,81,69,78,72,67,95,76,47,30.31,30.23,1,0,6,0.00
2013-7-17,93,81,71,80,74,70,98,81,53,30.31,30.15,3,0,6,0.00
2013-7-18,95,83,72,79,74,71,98,78,50,30.18,30.00,1,0,6,0.00
2013-7-19,91,82,75,76,74,-100,96,77,57,30.02,29.86,7,2,14,0.00
2013-7-20,89,78,70,75,72,67,97,83,61,29.91,29.85,9,2,18,0.17
2013-7-21,87,75,66,75,70,66,100,87,60,29.95,29.84,8,0,13,0.07
2013-7-22,82,74,69,76,71,68,99,91,74,29.91,29.76,6,1,11,0.72
2013-7-23,88,77,67,78,72,66,100,86,64,29.83,29.72,5,1,12,0.01
2013-7-24,78,70,61,68,61,57,94,75,55,29.99,29.82,3,0,9,0.00
2013-7-25,79,66,54,63,58,54,99,77,42,30.08,29.99,3,0,10,0.00
2013-7-26,80,68,54,68,61,54,100,80,54,30.08,29.96,5,0,10,0.00
2013-7-27,78,70,62,66,62,53,98,79,51,29.96,29.86,7,2,18,0.57
2013-7-28,74,63,49,60,53,48,99,74,46,30.06,29.95,5,1,13,0.00
2013-7-29,80,66,54,65,58,54,100,80,45,30.17,30.06,4,1,13,0.00
2013-7-30,79,67,60,68,64,59,98,90,60,30.20,30.08,2,0,7,0.15
2013-7-31,76,70,66,71,68,64,97,93,82,30.08,29.93,2,0,5,0.00
2013-8-1,84,73,65,70,66,60,99,81,47,30.01,29.93,6,1,16,0.09
2013-8-2,82,70,57,70,64,57,100,82,59,30.01,29.94,6,1,13,0.00
2013-8-3,85,75,68,73,69,66,97,82,63,30.03,29.93,5,1,12,0.01
2013-8-4,80,69,58,66,60,55,99,77,44,30.14,30.04,2,0,7,0.00
2013-8-5,83,68,54,66,60,53,100,77,47,30.11,29.92,4,0,8,0.00
2013-8-6,82,75,69,75,70,64,96,85,75,29.94,29.87,5,0,10,0.00
2013-8-7,84,76,69,75,73,68,99,89,71,29.91,29.84,5,1,10,0.00
2013-8-8,88,75,71,76,68,-100,99,85,62,29.93,29.84,3,-20,13,0.40
2013-8-9,86,76,71,74,72,70,99,88,61,30.01,29.89,4,0,7,0.00
2013-8-10,86,74,69,73,63,-100,98,79,56,30.09,30.00,4,-34,7,0.00
2013-8-11,85,74,65,70,66,62,99,80,47,30.09,30.03,5,1,12,0.00
2013-8-12,82,72,60,74,68,60,100,88,69,30.08,29.86,4,0,7,0.00
2013-8-13,79,72,60,73,65,-100,98,81,61,30.08,29.85,7,1,13,0.00
2013-8-14,74,62,49,56,53,48,99,74,47,30.18,30.08,4,0,11,0.00
2013-8-15,74,60,47,59,54,46,100,82,56,30.18,30.08,2,0,7,0.00
2013-8-16,78,65,51,63,57,50,100,78,48,30.15,30.09,1,0,7,0.00
2013-8-17,82,68,56,67,60,56,98,78,51,30.17,30.08,0,0,7,0.00
2013-8-18,84,70,56,68,62,56,100,80,45,30.17,30.07,2,0,5,0.00
2013-8-19,88,71,56,69,62,56,100,79,40,30.14,30.04,1,0,7,0.00
2013-8-20,86,72,60,75,66,60,100,85,54,30.13,30.05,1,0,2,0.00
2013-8-21,89,74,64,73,68,63,100,85,54,30.14,30.03,3,0,7,0.00
2013-8-22,90,77,64,74,69,64,100,80,49,30.10,30.00,6,1,13,0.00
2013-8-23,88,76,67,70,68,66,97,79,50,30.10,30.01,1,0,7,0.00
2013-8-24,89,73,60,69,63,55,100,76,35,30.23,30.10,0,0,5,0.00
2013-8-25,90,73,56,68,62,56,100,74,33,30.31,30.19,4,0,10,0.00
2013-8-26,88,76,63,74,69,62,100,82,57,30.23,30.06,7,1,12,0.00
2013-8-27,90,81,74,77,74,72,92,81,60,30.08,29.96,6,1,11,0.00
2013-8-28,94,83,74,75,72,70,93,73,47,29.97,29.90,6,2,14,0.00
2013-8-29,92,80,71,75,72,68,98,77,46,30.00,29.93,6,0,6,0.00
2013-8-30,95,79,65,76,70,64,100,78,47,29.96,29.81,5,1,10,0.00
2013-8-31,95,82,69,79,73,68,97,76,51,29.89,29.69,7,2,16,0.32
2013-9-1,88,76,68,75,71,67,99,87,60,29.86,29.70,9,1,17,0.22
2013-9-2,87,76,66,72,68,65,99,80,52,29.88,29.79,6,1,13,0.00
2013-9-3,79,68,59,65,59,55,97,77,47,30.05,29.87,5,1,11,0.00
2013-9-4,83,67,52,65,59,51,100,79,44,30.16,30.06,2,0,7,0.00
2013-9-5,87,68,56,69,60,-100,100,81,46,30.20,30.12,5,-9,8,0.00
2013-9-6,88,72,59,70,64,59,100,79,47,30.20,30.06,2,0,7,0.00
2013-9-7,87,73,60,70,66,60,100,81,49,30.08,29.94,6,1,16,0.00
2013-9-8,86,75,66,74,69,63,100,85,47,29.97,29.91,5,0,9,0.05
2013-9-9,93,78,65,75,70,65,100,79,49,29.99,29.91,7,1,16,0.00
2013-9-10,93,80,71,76,73,70,95,81,53,30.10,29.97,6,1,15,0.00
2013-9-11,94,80,71,75,72,68,97,77,44,30.13,30.01,5,1,12,0.00
2013-9-12,80,76,70,73,68,56,95,79,58,30.02,29.89,4,1,12,0.17
2013-9-13,70,62,50,58,52,47,98,73,48,30.09,29.96,7,1,14,0.00
2013-9-14,73,56,41,52,47,41,100,77,39,30.19,30.07,0,0,2,0.00
2013-9-15,78,60,43,61,52,42,100,77,41,30.13,30.02,9,1,15,0.00
2013-9-16,70,65,58,61,59,54,93,83,71,30.25,30.04,2,0,6,0.00
2013-9-17,74,61,50,59,54,49,100,81,49,30.29,30.13,2,0,5,0.00
2013-9-18,78,64,54,70,62,53,98,92,72,30.15,30.03,6,0,11,0.04
2013-9-19,83,72,65,74,69,65,100,91,72,30.10,29.93,6,0,10,0.46
2013-9-20,79,72,68,71,70,67,99,91,74,29.96,29.80,10,2,16,0.58
2013-9-21,71,62,52,68,56,49,99,82,46,29.89,29.77,6,2,12,0.30
2013-9-22,71,56,45,55,50,44,100,83,53,30.01,29.90,3,0,8,0.00
2013-9-23,72,56,42,55,49,42,100,81,46,30.09,30.00,0,0,2,0.00
2013-9-24,78,61,46,65,56,46,100,85,58,30.05,29.86,1,0,3,0.00
2013-9-25,79,66,57,66,61,57,100,85,57,29.89,29.83,0,0,3,0.00
2013-9-26,80,63,50,60,55,50,100,81,39,30.05,29.89,1,0,6,0.00
2013-9-27,81,62,48,63,55,48,100,82,41,30.16,30.05,1,0,8,0.00
2013-9-28,82,65,50,64,57,50,100,80,44,30.15,30.03,8,1,16,0.00
2013-9-29,65,62,56,63,60,55,99,95,81,30.04,29.99,6,1,11,0.37
2013-9-30,72,65,61,66,63,60,100,95,79,30.01,29.93,6,1,12,0.01
2013-10-1,80,67,59,67,64,59,100,89,62,30.07,29.99,6,1,12,0.00
2013-10-2,77,69,63,72,66,-100,100,93,81,30.09,30.00,4,-11,8,0.01
2013-10-3,82,70,66,71,64,-100,100,87,62,30.08,29.95,7,-18,14,0.22
2013-10-4,83,73,64,73,68,64,100,87,66,30.06,29.98,5,0,8,0.00
2013-10-5,76,72,66,72,70,66,100,93,86,30.02,29.87,6,1,12,0.44
2013-10-6,68,60,48,68,58,45,100,95,71,29.89,29.78,6,1,12,1.90
2013-10-7,62,53,46,51,46,44,98,79,60,30.17,29.86,7,2,12,0.00
2013-10-8,70,52,40,56,43,-100,100,81,45,30.26,30.16,3,-14,4,0.00
2013-10-9,76,62,45,60,51,-100,97,73,50,30.23,30.13,2,-20,7,0.00
2013-10-10,76,58,45,60,52,-100,100,85,50,30.19,30.07,1,-2,7,0.01
2013-10-11,79,56,45,59,44,-100,100,78,37,30.11,30.01,0,-48,0,0.00
2013-10-12,79,60,45,65,54,-100,100,84,51,30.11,30.03,2,-11,11,0.00
2013-10-13,73,63,49,63,54,46,98,75,39,30.32,30.11,5,1,9,0.00
2013-10-14,70,55,41,55,48,40,100,81,46,30.35,30.16,1,0,4,0.00
2013-10-15,69,60,50,65,58,50,99,95,83,30.16,29.93,5,1,12,0.04
2013-10-16,65,58,46,64,53,45,99,86,60,29.99,29.87,5,1,13,0.22
2013-10-17,58,48,39,50,45,39,100,92,68,29.99,29.93,5,1,13,0.13
2013-10-18,68,59,46,51,48,46,100,69,47,30.05,29.94,8,2,17,0.00
2013-10-19,53,48,43,48,44,38,99,85,59,30.03,29.86,8,1,13,0.09
2013-10-20,63,50,38,46,42,36,96,73,48,30.05,29.98,10,2,18,0.00
2013-10-21,64,53,40,51,45,37,98,76,58,30.01,29.92,8,2,19,0.00
2013-10-22,52,44,30,44,35,29,98,73,44,30.08,29.81,4,0,9,0.01
2013-10-23,47,43,39,45,37,32,95,80,61,30.10,29.77,8,2,16,0.01
2013-10-24,41,38,31,38,33,27,94,82,63,30.36,30.09,10,1,17,0.02
2013-10-25,50,37,28,32,29,26,96,76,41,30.51,30.33,5,1,13,0.00
2013-10-26,60,45,30,43,34,27,88,66,51,30.32,29.96,11,3,26,0.00
2013-10-27,61,42,29,40,34,28,99,76,37,30.14,30.06,5,0,9,0.00
2013-10-28,65,44,28,42,34,27,100,75,31,30.31,30.10,2,0,5,0.00
2013-10-29,54,44,33,53,42,32,100,91,80,30.36,30.16,0,0,1,0.10
2013-10-30,69,61,53,65,60,53,100,96,84,30.16,29.97,6,1,11,0.22
2013-10-31,68,64,58,66,61,57,98,91,72,29.97,29.35,15,6,28,1.44
2013-11-1,65,56,48,57,48,44,97,79,50,29.81,29.45,8,3,25,0.01
2013-11-2,56,47,37,45,41,36,100,80,59,30.16,29.80,7,1,16,0.00
2013-11-3,56,41,30,42,34,29,100,81,44,30.35,30.15,2,0,8,0.00
2013-11-4,59,48,35,46,41,34,97,77,56,30.37,30.27,5,0,13,0.00
2013-11-5,64,54,46,48,45,-100,98,75,54,30.38,30.16,5,-9,10,0.01
2013-11-6,60,56,42,58,50,41,98,82,60,30.16,29.98,11,3,18,0.44
2013-11-7,51,42,33,41,32,-100,97,72,38,30.35,30.14,8,2,13,0.00
2013-11-8,55,40,27,35,30,26,98,73,37,30.42,30.24,4,0,7,0.00
2013-11-9,63,51,34,45,37,29,80,60,46,30.24,30.06,12,4,25,0.00
2013-11-10,54,45,30,45,34,28,93,67,37,30.38,30.16,7,2,16,0.00
2013-11-11,60,43,28,46,34,26,98,75,34,30.33,30.13,11,2,24,0.03
2013-11-12,38,32,24,36,25,21,97,75,52,30.70,30.32,9,3,19,0.03
2013-11-13,42,29,18,24,20,16,95,73,37,30.72,30.44,8,1,13,0.00
2013-11-14,56,42,28,26,22,20,78,47,28,30.43,30.15,11,3,18,0.00
2013-11-15,53,46,34,45,32,22,92,59,38,30.16,30.07,5,1,11,0.00
2013-11-16,62,55,47,60,53,45,99,92,76,30.07,29.81,7,2,18,0.04
2013-11-17,65,63,62,61,61,60,96,91,86,29.80,29.71,17,9,35,0.42
2013-11-20,54,47,42,36,35,33,79,64,45,30.22,30.18,6,1,32,0.00
2013-11-21,58,52,45,52,43,-100,99,76,62,30.28,30.17,5,-11,10,0.08
2013-11-22,54,48,38,54,46,33,100,92,79,30.44,30.16,10,3,15,0.06
2013-11-23,38,31,22,33,22,10,95,71,51,30.68,30.43,11,4,21,0.00
2013-11-24,30,22,15,15,12,10,89,67,44,30.79,30.58,4,1,11,0.00
2013-11-25,38,30,18,30,20,15,91,69,40,30.57,30.21,8,2,13,0.00
2013-11-26,37,35,33,32,29,26,93,80,65,30.25,29.99,11,2,18,0.00
2013-11-27,33,24,16,26,15,9,81,68,47,30.38,30.04,10,5,19,0.00
2013-11-28,39,25,13,20,16,11,91,70,41,30.50,30.32,10,2,19,0.00
2013-11-29,42,27,14,25,19,12,92,76,48,30.67,30.50,4,0,6,0.00
2013-11-30,55,37,22,32,26,20,94,68,33,30.52,30.18,11,2,20,0.00
2013-12-1,57,46,33,41,34,26,96,63,41,30.17,29.97,6,2,13,0.00
2013-12-2,53,41,30,42,37,30,99,85,64,29.97,29.75,4,0,7,0.00
2013-12-3,54,44,30,51,43,30,100,97,89,29.84,29.76,5,1,8,0.00
2013-12-4,68,56,42,61,54,42,100,93,74,29.80,29.63,11,2,20,0.01
2013-12-5,67,43,30,61,39,28,96,87,76,30.22,29.72,9,4,19,0.30
2013-12-6,30,25,24,28,24,22,98,96,93,30.49,30.20,5,2,11,0.74
2013-12-7,27,20,9,22,15,6,94,84,75,30.68,30.48,6,1,11,0.01
2013-12-8,32,25,21,32,22,15,99,89,77,30.56,30.06,7,3,14,0.00
2013-12-9,32,28,22,32,23,17,99,83,67,30.30,30.06,7,2,14,0.00
2013-12-10,31,21,8,19,15,6,93,79,47,30.42,30.25,10,2,17,0.01
2013-12-11,35,17,2,26,12,-1,94,80,68,30.61,30.37,10,2,19,0.01
2013-12-12,26,15,-2,10,3,-100,88,63,31,30.66,30.40,5,1,11,0.00
2013-12-13,42,29,11,32,19,7,95,70,41,30.40,30.12,22,1,157,0.00
2013-12-14,37,34,30,37,34,28,100,97,92,30.12,29.75,9,2,16,0.49
2013-12-15,31,28,26,29,24,21,92,84,76,30.18,30.00,11,4,18,0.00
2013-12-16,44,34,29,35,29,-100,95,86,69,30.15,30.01,5,-10,10,0.00
2013-12-17,36,30,27,32,26,24,92,88,81,30.24,30.03,8,2,13,0.01
2013-12-18,44,34,21,26,20,15,87,60,33,30.33,30.06,6,1,16,0.00
2013-12-19,57,51,44,48,39,25,75,64,46,30.07,29.91,13,6,25,0.00
2013-12-20,63,59,56,60,54,47,93,82,68,29.91,29.77,15,10,34,0.09
2013-12-21,64,54,48,64,54,48,100,99,93,29.80,29.46,9,1,14,3.03
2013-12-22,62,43,34,62,42,31,100,96,89,30.14,29.42,11,5,25,0.06
2013-12-23,34,29,24,31,24,20,91,82,78,30.48,30.14,7,3,13,0.00
2013-12-24,24,16,9,20,9,1,88,72,55,30.66,30.48,8,2,17,0.00
2013-12-25,33,27,19,26,19,12,80,71,58,30.51,30.27,5,1,11,0.00
2013-12-26,42,34,28,29,26,-100,90,74,51,30.41,30.25,8,2,12,0.00
2013-12-27,51,39,27,34,29,22,85,70,51,30.44,30.32,8,1,12,0.00
2013-12-28,52,43,33,34,31,28,86,64,42,30.32,30.00,7,2,14,0.00
2013-12-29,45,38,29,41,34,27,97,89,61,30.14,29.86,8,3,17,0.22
2013-12-30,29,24,19,27,17,12,93,75,53,30.34,30.14,9,2,19,0.00
2013-12-31,39,29,21,24,18,14,78,66,44,30.44,30.25,7,2,12,0.00
2014-1-1,47,37,25,31,27,22,90,70,48,30.29,30.02,11,2,21,0.00
2014-1-2,36,24,12,34,21,7,98,88,78,30.42,29.89,10,4,18,0.11